Location: Newark
(48.8656°N, 2.3211°E)
Time: 06:24:40
(UTC+00:00)

Envisat - Visible Passes

Search period start: 19 February 2019 00:00
Search period end: 01 March 2019 00:00
Orbit: 764 x 766 km, 98.2° (Epoch: 18 February)

Date Brightness Start Highest point End Pass type
(mag) Time Alt. Az. Time Alt. Az. Time Alt. Az.
19 Feb 3.2 17:51:29 10° SE 17:56:23 51° ENE 18:01:19 10° N visible
19 Feb 5.3 19:31:35 10° SW 19:35:42 24° W 19:39:49 10° NW visible
20 Feb 6.3 05:58:02 10° ENE 06:00:22 13° E 06:02:42 10° ESE visible
20 Feb 4.0 18:53:46 10° S 18:58:40 49° W 19:03:37 10° NNW visible
21 Feb 3.0 18:16:46 10° SSE 18:21:51 83° ENE 18:26:58 10° NNW visible
21 Feb 6.0 19:58:43 10° WSW 20:01:33 15° W 20:04:23 10° NW visible
22 Feb 5.0 19:19:57 10° SSW 19:24:23 30° W 19:28:50 10° NNW visible
23 Feb 6.7 05:48:21 10° ENE 05:48:59 10° E 05:49:37 10° E visible
23 Feb 3.6 18:42:24 10° S 18:47:25 60° W 18:52:28 10° NNW visible
24 Feb 3.0 18:05:37 10° SSE 18:10:39 68° ENE 18:15:44 10° N visible
24 Feb 5.7 19:46:43 10° SW 19:50:11 18° W 19:53:41 10° NW visible
25 Feb 4.6 19:08:25 10° SSW 19:13:05 36° W 19:17:47 10° NNW visible
26 Feb 3.2 18:31:07 10° S 18:36:11 75° WSW 18:41:18 10° NNW visible
26 Feb 6.2 20:14:57 10° W 20:16:06 11° W 20:17:16 10° WNW visible
27 Feb 3.1 17:54:32 10° SSE 17:59:29 56° ENE 18:04:27 10° N visible
27 Feb 5.5 19:34:54 10° SW 19:38:51 22° W 19:42:50 10° NW visible
28 Feb 6.3 06:00:51 10° NE 06:03:33 14° E 06:06:15 10° ESE visible
28 Feb 4.2 18:56:57 10° S 19:01:48 45° W 19:06:42 10° NNW visible
